Location: Baia Mare
(47.6567°N, 23.5850°E)
Time: 10:56:39

ISS - Pass Details

Date: 01 March 2018
Orbit: 403 x 406 km, 51.6° (Epoch: 21 March)

Event Time Altitude Azimuth Distance (km) Brightness Sun altitude
Exits shadow 06:20:39 - 230° (SW) 1,815 -1.0 -8.5°
Reaches altitude 10° 06:21:32 10° 228° (SW) 1,460 -1.4 -8.4°
Maximum altitude 06:24:44 54° 150° (SSE) 497 -3.2 -7.9°
Drops below altitude 10° 06:27:57 10° 71° (ENE) 1,466 0.3 -7.3°
Sets 06:30:04 0° 67° (ENE) 2,328 1.3 -7.0°
